Skip Page Navigation
NASA JPL Caltech
NASA Logo - Jet Propulsion Laboratory + View the NASA Portal
+ Near-Earth Object (NEO) Program
Search JPL
JPL Home Earth Solar System Stars & Galaxies Technology
JPL Solar System Dynamics
BODIES ORBITS EPHEMERIDES TOOLS PHYSICAL DATA DISCOVERY FAQ SITE MAP
JPL Small-Body Database Browser
Search: [ help ]  
(2012 OP4)
Classification: Apollo [NEO, PHA]          SPK-ID: 3606308
Ephemeris | Orbit Diagram | Orbital Elements | Physical Parameters | Close-Approach Data ]

[ hide orbit diagram ]
Orbit Diagram
Note: Make sure you have Java enabled on your browser to see the applet. This applet is provided as a 3D orbit visualization tool. The applet was implemented using 2-body methods, and hence should not be used for determining accurate long-term trajectories (over several years or decades) or planetary encounter circumstances. For accurate long-term ephemerides, please instead use our Horizons system.
Orbit Viewer

Additional Notes: the orbits shown in the applet are color coded. The planets are white lines, and the asteroid/comet is a blue line. The bright white line indicates the portion of the orbit that is above the ecliptic plane, and the darker portion is below the ecliptic plane. Likewise for the asteroid/comet orbit, the light blue indicates the portion above the ecliptic plane, and the dark blue the portion below the ecliptic plane.

Orbit Viewer applet originally written and kindly provided by Osamu Ajiki (AstroArts), and further modified by Ron Baalke (JPL).


Orbital Elements at Epoch 2456400.5 (2013-Apr-18.0) TDB
Reference: JPL 17 (heliocentric ecliptic J2000)
 Element Value Uncertainty (1-sigma)   Units 
e .6573787567106321 3.2434e-06  
a 2.117982898238346 1.7065e-05 AU
q .7256659338600409 1.0809e-06 AU
i 20.66372251602139 8.6364e-05 deg
node 143.8546443865984 2.688e-05 deg
peri 262.5871599287741 4.6859e-05 deg
M 62.49026177649668 0.00072966 deg
tp 2456205.069679774860
(2012-Oct-04.56967977)
8.128e-05 JED
period 1125.85406559317
3.08
0.013607
3.725e-05
d
yr
n .3197572500751504 3.8646e-06 deg/d
Q 3.51029986261665 2.8284e-05 AU
  Orbit Determination Parameters
   # obs. used (total)      202  
   data-arc span      229 days  
   first obs. used      2012-07-28  
   last obs. used      2013-03-14  
   planetary ephem.      DE405  
   SB-pert. ephem.      SB405-CPV-2  
   condition code      3  
   fit RMS      .34114  
   data source      ORB  
   producer      Otto Matic  
   solution date      2013-Mar-15 01:50:23  

Additional Information
 Earth MOID = .0493483 AU 
 T_jup = 3.356 
[ show covariance matrix ]

Ephemeris | Orbit Diagram | Orbital Elements | Physical Parameters | Close-Approach Data ]

Physical Parameter Table
Parameter Symbol Value Units Sigma Reference Notes
absolute magnitude H 19.94 mag .45462 17 autocmod 2.5b

[ show close-approach data ]
Ephemeris | Orbit Diagram | Orbital Elements | Physical Parameters | Close-Approach Data ]
ABOUT SSD CREDITS/AWARDS PRIVACY/COPYRIGHT GLOSSARY LINKS
FirstGov 2013-May-19 04:06 UT
(server date/time)  
NASA Home Page
Site Manager:   Donald K. Yeomans
Webmaster  Alan B. Chamberlin